ARIANE 1 DEB, 40781

Orbit data source: Space-Track

ARIANE 1 DEB, 40781 is space debris in HEO originally from a launch on Mon, 24 Dec 1979 UTC launched from the French Guiana (FRGUI). Debris objects in space refer to the collection of defunct objects orbiting the Earth. Examples of debris include non-operational satellites, rocket bodies, and fragments generated from explosions, collisions, or faulty payload assembly.

Loading next visibility...
Identifier
40781, 1979-104AJ
Orbit
HEO
Country
Flag of FRFR
Related business
Manufacturer
Unknown
Mission
Spacecraft
Bus & Motor
Unknown
Mass
Unknown
Launch date (UTC)
1979-12-24 (46 years ago)
Launch vehicle
Unknown
Launch site
French Guiana (FRGUI)
Object type
Payload
Rocket body
Debris
Shape & HBR
Unknown shape, 0.2 m
Radar Cross Section
Medium (>0.1 m² and <1 m²)

Expand to show TLE details & history
Last TLE update: 1 month ago

TLE from 1 month ago
0 ARIANE 1 DEB
1 40781U 79104AJ  25274.15398741  .00001898  00000-0  85265-2 0  9993
2 40781  18.8812 160.0876 6485762 218.9297  69.3546  3.16331401 15230
Epoch: 2025-10-01T03:41Z
TLE epoch observation values (Epoch: 2025-10-01T03:41:44.512Z)
Latitude
0.00012°
Longitude
94.58616°
Altitude
16,565.924 km
Speed
3.796 km/s
True Right ascension
10h 40m 37s
True Declination
0° 00' 00"
Sunlit
Object was in daylight at epoch
Visualization orbit readout
Latitude
Unknown
Longitude
Unknown
Altitude
Unknown
Speed
Unknown
Apparent Right ascension
Unknown
Apparent Declination
Unknown
Sunlit
N/A
Visualization observer readout
Local Sidereal Time
18:40:39
Azimuth
Unknown
Elevation
Unknown
Doppler factor
Unknown
Orbital elements
Apogee altitude
25,944.845 km
Perigee altitude
512.091 km
Semi-major axis
19,606.605 km
Eccentricity
0.64858
Inclination
18.8812°
RAAN
160.0876°
Arg. of periapsis
218.9297°
True anomaly
141.1227°
Mean anomaly
69.3546°
Eccentric anomaly
105.21305°
Mean motion
0.79057 °/min
Orbital period
455.37 mins
BSTAR
0.0085265
Loading maneuver chart data...
Computing Atmospheric mass density...
Loading historical data...
Loading historical data...
Loading historical data...
Loading historical data...
Loading historical data...
Loading historical data...
Loading historical data...

Documentation

Showing up to 5 results
|